Jefferson, NC

6:23 AM EST on December 10, 2019 (GMT -0500)
Ashe County

Weather History for KGEV - August, 2019

Change the Weather History Date:

Friday, August 23, 2019

  Actual Average Record
Temperature  
Mean Temperature 71 °F -  
Max Temperature 78 °F 78 °F 93 °F (1983)
Min Temperature 64 °F 56 °F 45 °F (1969)
Cooling Degree Days 6    
Growing Degree Days 21 (Base 50)    
Moisture  
Dew Point 64 °F    
Average Humidity 82    
Maximum Humidity 100    
Minimum Humidity 59    
Precipitation  
Precipitation 0.06 in - - ()
Sea Level Pressure  
Sea Level Pressure 30.14 in    
Wind  
Wind Speed 4 mph ()    
Max Wind Speed 18 mph    
Max Gust Speed 28 mph    
Visibility 9.5 miles    
Events Fog , Rain , Thunderstorm    
Averages and records for this station are not official NWS values.
T = Trace of Precipitation, MM = Missing Value Source: Averaged Metar Reports

Daily Weather History Graph

Daily Weather History Graph

Search for Another Location

Airport or City:

Astronomy

Aug. 23, 2019 Rise Set
Actual Time 6:49 AM EDT 8:06 PM EDT
Civil Twilight 6:22 AM EDT 8:33 PM EDT
Nautical Twilight 5:50 AM EDT 9:05 PM EDT
Astronomical Twilight 5:17 AM EDT 9:38 PM EDT
Moon 12:08 AM EDT (8/23) 2:12 PM EDT (8/23)
Length of Visible Light 14h 10m
Length of Day
13h 16m
Waning Gibbous, 50% of the Moon is Illuminated
Aug 23
Waning Gibbous
Aug 30
New
Sep 5
First Quarter
Sep 14
Full
Sep 21
Last Quarter

Hourly Weather History & Observations

Time (EDT) Temp. Dew Point Humidity Pressure Visibility Wind Dir Wind Speed Gust Speed Precip Events Conditions
12:15 AM 65.3 °F 64.2 °F 96% 30.15 in 10.0 mi Calm Calm - N/A Thunderstorm Mostly Cloudy
12:35 AM 65.8 °F 64.4 °F 95% 30.16 in 10.0 mi Calm Calm - N/A   Mostly Cloudy
12:55 AM 66.0 °F 64.8 °F 96% 30.15 in 10.0 mi Calm Calm - N/A Thunderstorm Overcast
1:35 AM 66.2 °F 64.8 °F 95% 30.14 in 10.0 mi Calm Calm - N/A   Overcast
1:55 AM 66.4 °F 64.8 °F 95% 30.15 in 10.0 mi Calm Calm - N/A Rain Light Rain
2:35 AM 64.9 °F 64.8 °F 99% 30.14 in 5.0 mi Calm Calm - 0.02 in Rain Light Rain
2:55 AM 65.1 °F 64.8 °F 99% 30.14 in 7.0 mi Calm Calm - 0.02 in   Drizzle
3:15 AM 64.6 °F 64.6 °F 100% 30.14 in 3.0 mi Calm Calm - N/A   Scattered Clouds
3:35 AM 64.8 °F 64.8 °F 100% 30.14 in 10.0 mi Calm Calm - N/A   Mostly Cloudy
3:55 AM 65.3 °F 64.4 °F 97% 30.13 in 10.0 mi Calm Calm - N/A   Mostly Cloudy
4:15 AM 64.9 °F 63.9 °F 96% 30.13 in 4.0 mi Calm Calm - N/A Rain Light Rain
4:35 AM 64.6 °F 64.4 °F 99% 30.13 in 10.0 mi Calm Calm - N/A   Mostly Cloudy
4:55 AM 64.8 °F 64.6 °F 99% 30.13 in 7.0 mi Calm Calm - N/A   Scattered Clouds
5:15 AM 64.0 °F 64.0 °F 100% 30.13 in 0.5 mi Calm Calm - N/A Fog Fog
5:35 AM 64.4 °F 64.4 °F 100% 30.13 in 10.0 mi Calm Calm - N/A   Mostly Cloudy
5:55 AM 64.4 °F 64.4 °F 100% 30.13 in 10.0 mi Calm Calm - 0.01 in Rain Light Rain
6:15 AM 65.5 °F 63.7 °F 94% 30.13 in 10.0 mi Calm Calm - N/A Rain Light Rain
6:35 AM 66.2 °F 63.5 °F 91% 30.13 in 10.0 mi West 5.8 mph - 0.02 in Rain Rain
6:55 AM 65.3 °F 63.5 °F 94% 30.13 in 10.0 mi West 4.6 mph - 0.03 in Rain Light Rain
7:15 AM 67.1 °F 63.7 °F 89% 30.13 in 10.0 mi West 12.7 mph 17.3 mph N/A   Scattered Clouds
7:35 AM 67.1 °F 63.5 °F 88% 30.13 in 10.0 mi West 17.3 mph 26.5 mph N/A   Mostly Cloudy
7:55 AM 67.5 °F 62.4 °F 84% 30.14 in 10.0 mi West 16.1 mph 20.7 mph N/A Rain Rain
8:15 AM 67.1 °F 63.0 °F 87% 30.14 in 10.0 mi West 15.0 mph - N/A Rain Light Rain
8:35 AM 67.5 °F 63.1 °F 86% 30.14 in 10.0 mi West 11.5 mph 16.1 mph N/A   Overcast
9:15 AM 68.7 °F 64.4 °F 86% 30.14 in 10.0 mi West 18.4 mph 24.2 mph N/A   Scattered Clouds
9:35 AM 68.5 °F 64.4 °F 87% 30.14 in 10.0 mi West 18.4 mph 27.6 mph N/A   Mostly Cloudy
9:55 AM 70.5 °F 64.8 °F 82% 30.14 in 10.0 mi WNW 18.4 mph 25.3 mph N/A   Scattered Clouds
10:15 AM 70.9 °F 64.9 °F 81% 30.15 in 10.0 mi West 16.1 mph 27.6 mph N/A   Scattered Clouds
10:35 AM 71.8 °F 64.8 °F 78% 30.15 in 10.0 mi NW 16.1 mph 25.3 mph N/A   Scattered Clouds
10:55 AM 72.5 °F 64.6 °F 76% 30.15 in 10.0 mi NW 15.0 mph 27.6 mph N/A   Mostly Cloudy
11:15 AM 72.1 °F 64.0 °F 76% 30.15 in 10.0 mi West 11.5 mph 25.3 mph N/A   Mostly Cloudy
11:35 AM 73.4 °F 64.2 °F 73% 30.15 in 10.0 mi WSW 10.4 mph 21.9 mph N/A   Overcast
11:55 AM 73.2 °F 64.0 °F 73% 30.16 in 10.0 mi West 11.5 mph 17.3 mph N/A   Overcast
12:15 PM 75.0 °F 63.9 °F 68% 30.15 in 10.0 mi WNW 9.2 mph 21.9 mph N/A   Mostly Cloudy
12:35 PM 75.0 °F 64.0 °F 69% 30.15 in 10.0 mi West 12.7 mph 17.3 mph N/A   Mostly Cloudy
12:55 PM 74.8 °F 63.9 °F 69% 30.16 in 10.0 mi West 9.2 mph 18.4 mph N/A   Overcast
1:15 PM 75.4 °F 63.0 °F 65% 30.16 in 10.0 mi West 5.8 mph 17.3 mph N/A   Mostly Cloudy
1:35 PM 75.4 °F 63.1 °F 66% 30.15 in 10.0 mi West 6.9 mph 19.6 mph N/A   Overcast
1:55 PM 75.4 °F 63.9 °F 67% 30.15 in 10.0 mi West 8.1 mph - N/A   Mostly Cloudy
2:15 PM 76.5 °F 63.7 °F 64% 30.15 in 10.0 mi West 11.5 mph 16.1 mph N/A   Mostly Cloudy
2:35 PM 76.3 °F 63.3 °F 64% 30.14 in 10.0 mi West 11.5 mph 19.6 mph N/A   Mostly Cloudy
2:55 PM 77.9 °F 63.1 °F 60% 30.13 in 10.0 mi West 9.2 mph - N/A   Mostly Cloudy
3:15 PM 77.9 °F 62.6 °F 59% 30.13 in 10.0 mi West 8.1 mph - N/A   Mostly Cloudy
3:35 PM 77.7 °F 62.6 °F 60% 30.12 in 10.0 mi WNW 5.8 mph - N/A   Scattered Clouds
3:55 PM 78.6 °F 63.5 °F 60% 30.11 in 10.0 mi WNW 8.1 mph - N/A   Mostly Cloudy
4:15 PM 78.1 °F 63.0 °F 60% 30.11 in 10.0 mi WNW 5.8 mph - N/A   Mostly Cloudy
4:35 PM 77.9 °F 63.3 °F 61% 30.11 in 10.0 mi WNW 8.1 mph - N/A   Mostly Cloudy
4:55 PM 76.8 °F 63.9 °F 64% 30.11 in 10.0 mi WNW 8.1 mph - N/A   Mostly Cloudy
5:15 PM 73.9 °F 64.0 °F 71% 30.11 in 10.0 mi WNW 8.1 mph - N/A Thunderstorm Scattered Clouds
5:35 PM 73.8 °F 64.8 °F 73% 30.12 in 10.0 mi WNW 9.2 mph - N/A   Clear
5:55 PM 75.6 °F 64.4 °F 68% 30.12 in 10.0 mi WNW 10.4 mph - N/A   Mostly Cloudy
6:15 PM 74.3 °F 65.1 °F 73% 30.12 in 10.0 mi WNW 6.9 mph - N/A Rain Light Rain
6:35 PM 72.9 °F 65.1 °F 77% 30.13 in 10.0 mi Calm Calm - N/A Rain Light Rain
6:55 PM 72.9 °F 65.3 °F 77% 30.12 in 10.0 mi WNW 3.5 mph - N/A   Mostly Cloudy
7:15 PM 72.7 °F 64.9 °F 77% 30.12 in 10.0 mi WNW 4.6 mph - N/A   Scattered Clouds
7:35 PM 71.8 °F 64.8 °F 78% 30.13 in 10.0 mi WNW 5.8 mph - N/A   Clear
7:55 PM 71.6 °F 64.8 °F 79% 30.13 in 10.0 mi WNW 4.6 mph - N/A   Scattered Clouds
8:15 PM 71.1 °F 64.9 °F 81% 30.13 in 10.0 mi WNW 5.8 mph - N/A   Mostly Cloudy
8:35 PM 70.7 °F 64.8 °F 81% 30.13 in 10.0 mi WNW 4.6 mph - N/A   Overcast
8:55 PM 70.2 °F 65.1 °F 84% 30.14 in 10.0 mi Calm Calm - N/A   Overcast
9:15 PM 69.1 °F 65.1 °F 87% 30.14 in 10.0 mi Calm Calm - N/A   Overcast
9:35 PM 68.9 °F 66.2 °F 91% 30.15 in 10.0 mi Calm Calm - N/A   Overcast
9:55 PM 68.7 °F 66.2 °F 92% 30.16 in 10.0 mi Calm Calm - N/A   Overcast
10:15 PM 68.7 °F 65.3 °F 89% 30.16 in 10.0 mi Calm Calm - N/A   Overcast
10:55 PM 68.4 °F 65.8 °F 92% 30.17 in 10.0 mi Calm Calm - N/A   Overcast
11:15 PM 68.0 °F 65.8 °F 93% 30.17 in 10.0 mi Calm Calm - N/A   Overcast
11:35 PM 66.9 °F 65.5 °F 95% 30.17 in 10.0 mi Calm Calm - N/A   Overcast
11:55 PM 66.2 °F 65.7 °F 98% 30.17 in 10.0 mi Calm Calm - N/A   Overcast